Hourly Data Report for October 04, 2017

All times are specified in Local Standard Time (LST). Add 1 hour to adjust for Daylight Saving Time where and when it is observed.

HART ISLAND (AUT)
NOVA SCOTIA

45°21'00.000" N
60°59'00.000" W
8.20 m
8202318
71419
WRN

Download Data

Hourly Data (October 2017)
Hourly Data Report for October 4, 2017
Temp Definition
°C
Dew Point Temp Definition
°C
Rel Hum Definition
%
Wind Dir Definition
10's deg

Wind Spd Definition
km/h
Visibility Definition
km
Stn Press Definition
kPa
Hmdx Definition


Wind Chill Definition


Weather Definition


TIME
00:00 9.3 6.4 82 26 17   102.86     LegendNANA
01:00 8.5 5.5 81 22 13   102.79     LegendNANA
02:00 9.3 6.4 82 24 17   102.70     LegendNANA
03:00 9.4 5.7 78 25 19   102.59     LegendNANA
04:00 8.5 5.4 81 24 17   102.57     LegendNANA
05:00 8.2 5.8 85 23 12   102.52     LegendNANA
06:00 8.4 6.7 89 21 12   102.43     LegendNANA
07:00 9.2 7.4 88 22 14   102.34     LegendNANA
08:00 10.3 7.3 81 24 28   102.30     LegendNANA
09:00 12.3 8.3 77 24 21   102.22     LegendNANA
10:00 15.0 10.1 73 23 20   102.12     LegendNANA
11:00 17.0 10.6 66 25 24   102.02     LegendNANA
12:00 18.2 11.8 66 24 24   101.96     LegendNANA
13:00 18.4 12.5 69 23 26   101.83     LegendNANA
14:00 17.8 12.8 73 22 27   101.76     LegendNANA
15:00 17.0 13.0 77 22 36   101.67     LegendNANA
16:00 16.6 13.3 81 22 33   101.64     LegendNANA
17:00 16.4 13.6 84 22 30   101.61     LegendNANA
18:00 15.9 13.9 88 22 25   101.57     LegendNANA
19:00 15.8 14.2 90 21 24   101.53     LegendNANA
20:00 15.8 14.3 91 21 24   101.48     LegendNANA
21:00 16.0 14.5 91 22 26   101.40     LegendNANA
22:00 16.1 14.6 91 23 35   101.30     LegendNANA
23:00 16.0 14.3 90 22 35   101.24     LegendNANA

Notes on Data Quality.

Legend

  • E = Estimated
  • M = Missing
  • NA = Not Available
  • ‡ = Partner data that is not subject to review by the National Climate Archives
Date modified: